Temperature
24 24 23 23 23 23 23 24 24 25 25 25 25 24 23 21 20 19 18 17 17 17 17 16 16 16 16 16 15 15 15 15 15 14 14 14 13 13 13 13 13 12 12 12
24 24 23 23 23 23 23 24 24 24 24 26 25 24 22 21 20 19 18 18 17 17 17 17 17 16 16 16 15 15 15 15 15 14 14 14 13 13 13 13 13 12 12 12
24 24 23 23 24 24 24 24 24 24 25 25 24 23 22 21 20 19 19 18 18 17 17 17 17 16 16 16 15 15 15 15 15 14 14 13 13 13 13 13 12 12 12 12
24 23 22 25 25 24 24 24 25 25 25 24 23 22 21 21 20 19 19 18 18 18 17 17 16 16 16 16 15 15 15 14 14 14 14 13 13 13 13 12 12 12 12 11
23 23 24 25 24 24 24 24 25 24 24 23 21 21 21 20 20 20 19 18 18 17 17 17 16 16 16 15 15 15 14 14 14 14 14 13 13 13 13 12 12 12 12 11
23 22 23 24 24 23 24 24 25 24 23 22 21 23 24 21 20 19 19 18 18 17 17 17 16 16 16 15 15 15 14 14 14 14 14 13 13 13 12 12 12 12 12 11
22 23 24 24 22 22 23 24 23 23 22 21 22 24 22 20 20 19 19 18 18 18 17 17 17 16 15 15 15 15 14 14 14 13 13 13 13 12 12 12 12 11 11 11
22 22 23 22 22 23 24 23 22 22 21 21 21 20 20 20 19 19 18 18 18 18 17 17 16 16 15 15 15 14 14 14 13 13 13 13 13 12 12 12 11 11 11 10
23 23 22 20 21 21 20 21 21 21 20 20 20 19 19 19 19 18 18 18 18 17 17 17 16 16 15 15 15 14 14 13 13 13 13 13 12 12 12 11 11 10 10 10
22 22 21 20 19 19 19 20 20 20 19 19 19 19 19 19 18 18 18 18 17 17 17 17 16 16 15 15 15 14 13 13 13 13 12 12 12 12 11 11 11 10 10 10
21 22 21 20 19 19 19 19 19 19 19 19 19 19 18 18 18 18 18 17 17 17 16 16 16 16 15 15 14 14 13 13 12 12 12 12 11 11 11 11 11 10 10 9
21 21 21 21 19 19 19 19 19 19 19 19 18 18 18 18 18 18 17 17 17 17 16 16 15 15 15 14 14 13 13 12 12 12 12 11 11 11 11 11 10 10 10 9
19 18 18 18 18 18 18 18 18 18 18 18 18 18 18 18 17 17 17 17 17 16 16 15 15 15 14 14 13 13 13 12 12 12 11 11 11 10 10 10 10 10 10 9
16 16 17 17 17 17 17 17 17 18 18 18 18 17 17 17 17 17 17 16 16 16 15 15 14 14 14 13 13 13 12 12 12 12 11 11 10 10 10 9 9 9 9 9
16 16 16 16 16 16 17 17 17 17 17 17 17 17 16 16 16 16 16 16 15 15 15 15 14 14 13 13 13 12 12 11 11 11 11 10 10 10 9 9 9 8 8 8
15 15 15 15 15 15 15 16 16 16 16 16 16 16 16 16 15 15 15 15 15 15 15 14 14 13 13 13 12 12 11 11 11 11 10 10 10 9 9 8 8 8 8 8
14 14 14 15 15 15 15 15 15 15 15 15 15 15 15 15 15 15 14 14 14 14 14 14 13 13 12 12 12 11 11 11 11 10 10 9 9 9 8 8 8 7 7 7
13 13 14 14 14 14 14 15 15 15 15 15 14 14 14 14 14 14 14 14 13 13 13 13 12 12 12 12 11 11 10 10 10 9 9 9 8 8 8 7 7 7 7 7
13 13 13 13 13 13 14 14 14 14 14 14 14 14 13 13 13 13 13 13 12 12 12 12 12 12 11 11 11 10 10 9 9 9 8 8 8 7 7 7 7 6 6 6
12 12 12 12 13 13 13 13 13 13 13 13 13 13 12 12 12 12 12 12 12 12 12 11 11 11 10 10 10 9 9 9 8 8 8 7 7 7 7 6 6 6 6 5
11 11 11 12 12 12 12 12 12 12 12 12 12 12 12 11 11 11 11 11 11 11 11 10 10 10 10 9 9 9 8 8 8 7 7 7 7 6 6 6 6 5 5 5
10 10 10 11 11 11 11 11 11 11 11 11 11 10 10 10 10 10 10 10 10 10 9 9 9 9 9 9 8 8 8 7 7 7 6 6 6 6 6 5 5 5 5 4
9 9 9 9 10 10 10 10 10 10 10 10 10 9 9 9 9 9 9 9 9 9 9 8 8 8 8 7 7 7 7 6 6 6 6 6 5 5 5 5 5 4 4 4
8 8 8 8 9 9 9 9 9 9 9 9 9 9 8 8 8 8 8 8 8 8 8 8 7 7 7 6 6 6 6 5 5 5 5 5 5 5 5 4 4 4 4 4
8 8 8 8 8 8 8 8 8 8 8 8 7 7 7 7 7 7 7 7 7 7 7 7 6 6 6 5 5 5 5 5 5 5 4 4 4 4 4 4 4 4 3 3
7 7 7 7 7 7 7 7 7 7 7 7 7 7 6 6 6 6 6 6 6 6 6 6 6 5 5 5 5 4 4 4 4 4 4 4 4 4 3 3 3 3 3 3
6 6 6 6 6 6 6 6 6 6 6 6 6 6 6 6 6 6 6 5 5 5 5 5 5 5 4 4 4 4 4 4 4 3 3 3 3 3 3 3 3 3 2 2
Wind_Speed
6 4 5 8 10 13 15 13 11 10 9 9 7 7 8 10 11 12 13 14 14 13 12 11 11 10 9 8 8 8 8 7 6 6 6 5 4 4 3 2 2 1 1 1
7 6 8 9 11 13 14 14 14 13 13 9 7 6 8 10 12 14 14 14 14 14 13 13 12 11 10 9 9 8 8 7 6 6 6 6 5 4 3 3 2 2 2 2
7 4 6 10 11 13 12 12 12 13 11 7 6 8 10 11 13 14 14 14 15 15 14 13 12 12 11 10 9 9 8 7 7 7 7 6 6 5 4 3 3 2 2 2
6 6 9 4 1 6 11 12 12 12 9 8 7 7 8 9 11 13 13 14 14 13 13 12 12 11 11 10 10 9 8 7 7 7 6 6 5 5 4 4 3 3 3 3
7 9 9 6 4 6 8 8 9 11 9 6 3 5 6 8 9 11 11 12 12 12 12 12 12 12 11 11 10 9 9 8 7 7 7 6 6 5 4 4 3 3 3 3
7 8 8 4 1 3 5 6 3 5 5 5 7 6 5 6 8 8 8 9 10 11 12 12 12 12 12 11 11 10 9 8 8 7 7 7 6 5 5 4 4 4 3 4
11 11 8 3 3 6 6 2 2 2 4 8 9 5 2 5 7 8 8 9 10 11 11 11 12 12 12 11 11 10 8 8 7 7 7 6 6 5 5 4 4 4 4 4
8 9 7 3 6 6 3 3 1 2 3 6 6 2 2 5 7 8 9 10 11 11 10 10 12 12 12 11 10 9 8 8 7 7 6 6 6 5 5 5 5 5 5 5
6 5 1 3 4 3 4 5 4 3 3 5 5 4 4 6 7 8 9 10 10 10 10 10 12 12 12 10 9 9 9 8 7 7 7 6 6 6 5 5 5 5 5 5
6 7 5 5 6 7 7 7 6 5 5 5 6 6 5 6 7 8 9 9 10 11 11 11 11 11 11 10 10 10 10 9 8 8 7 7 6 6 5 5 5 6 5 6
7 7 5 5 5 5 5 6 6 5 5 6 7 6 6 6 7 7 8 8 9 10 11 11 11 11 10 10 11 11 10 9 8 7 7 7 7 6 7 6 6 6 6 6
7 6 6 6 5 5 5 5 5 4 4 5 6 7 7 6 6 7 8 8 9 9 10 10 10 11 10 10 11 11 9 9 7 7 6 6 6 6 7 7 6 8 9 9
7 6 6 7 6 6 6 6 5 4 4 5 5 6 7 6 6 7 7 8 9 10 10 10 10 10 10 10 11 11 10 9 7 7 7 7 6 6 6 7 9 10 11 11
7 6 6 6 6 6 5 4 4 3 3 4 4 5 5 6 6 7 8 8 8 8 9 9 9 10 10 11 11 11 10 8 7 7 7 7 7 7 6 7 6 7 8 10
6 6 7 6 5 4 3 2 2 2 2 2 3 4 5 6 6 6 6 6 7 8 8 9 9 9 9 10 11 11 9 7 7 7 7 7 7 7 7 8 7 7 7 6
5 5 4 5 5 4 3 3 3 2 2 3 3 4 5 5 5 5 5 6 7 8 8 8 9 8 9 10 10 9 8 8 8 7 7 7 7 7 7 7 7 7 7 7
4 5 5 5 5 4 4 4 4 3 3 3 4 4 4 4 4 4 5 6 6 7 7 8 7 7 8 10 10 8 8 8 10 8 8 7 7 7 7 7 8 8 8 7
5 6 6 6 5 5 5 4 4 3 3 3 3 4 5 5 5 5 5 5 5 6 6 6 6 7 8 9 9 8 7 7 8 8 7 7 7 8 8 8 8 9 8 7
3 3 4 4 4 4 4 4 4 3 3 3 4 4 5 5 5 5 5 5 5 6 5 5 6 7 8 8 8 7 8 8 8 8 8 8 8 8 8 8 9 9 9 8
3 3 3 3 3 3 3 3 3 3 3 3 4 4 4 4 4 4 4 5 4 4 5 4 6 6 7 7 7 7 8 8 9 8 8 8 8 9 9 9 9 9 9 9
3 3 3 3 3 3 3 3 2 3 3 3 4 5 5 4 4 4 4 4 3 3 3 4 5 5 5 5 7 7 8 8 8 9 8 8 9 9 9 9 9 9 9 9
3 3 3 3 2 2 2 2 2 2 3 3 3 4 4 4 4 4 4 3 3 2 3 4 4 4 4 5 6 7 7 8 8 8 8 8 9 9 9 10 9 9 10 10
3 3 3 2 2 3 3 2 2 2 3 3 3 3 3 3 3 3 4 3 3 3 3 4 3 4 6 6 6 7 7 8 8 8 8 9 9 9 10 10 10 10 10 10
3 3 3 3 2 2 2 2 2 2 2 3 3 3 3 3 3 3 3 3 3 3 4 3 4 6 7 6 6 6 7 7 8 8 8 9 9 9 9 9 10 10 10 11
3 3 2 2 2 2 3 3 2 2 2 2 3 3 3 3 3 3 3 4 4 4 4 4 5 6 6 6 6 6 7 7 8 8 8 9 9 9 9 9 9 10 10 10
3 3 3 3 3 3 3 3 3 3 3 3 3 3 3 3 3 3 3 4 5 5 5 4 4 5 5 5 6 7 7 8 8 8 9 9 9 9 9 10 12 10 10 11
4 3 3 3 3 3 3 3 4 4 4 4 4 4 4 4 4 3 4 4 4 4 4 4 5 5 5 6 6 7 8 8 8 8 8 8 8 8 9 11 10 9 10 10
Wind_Direction
260 258 226 233 226 217 226 244 259 266 265 259 247 226 206 194 189 188 189 189 189 189 187 185 185 185 183 181 182 183 184 189 189 182 175 179 177 185 189 196 208 218 252 293
246 237 235 244 241 231 235 246 255 263 267 264 255 222 206 196 191 193 194 194 192 191 189 189 186 184 182 182 182 183 185 185 180 183 179 184 186 190 194 205 217 223 252 272
249 229 236 250 240 229 229 232 241 251 260 251 229 216 211 200 196 199 197 195 194 193 192 191 188 183 181 181 178 181 182 180 181 183 182 186 186 187 197 205 212 226 246 265
257 245 252 270 233 231 236 245 245 255 261 252 238 227 218 210 204 204 199 196 195 193 190 188 184 181 179 177 179 181 183 183 182 183 184 185 187 194 208 215 211 229 249 263
248 254 263 266 239 214 228 255 252 250 255 248 220 200 216 209 206 204 198 194 191 189 185 182 180 178 176 177 181 184 186 187 185 186 185 188 192 200 209 215 222 233 247 263
238 251 259 268 132 184 230 252 245 231 230 201 183 210 213 186 196 198 189 183 180 180 179 179 177 176 179 181 184 189 190 191 188 188 187 192 200 205 204 212 226 237 244 258
239 249 258 285 138 173 225 275 84 203 209 190 203 231 168 164 178 181 176 173 173 175 178 178 175 177 183 186 191 190 186 186 187 187 192 196 201 203 205 213 224 237 245 255
230 240 249 138 163 204 295 4 349 235 221 214 226 234 160 168 172 172 170 170 173 175 177 177 178 181 186 192 191 183 181 185 188 190 193 196 199 206 212 216 225 238 250 259
229 245 23 169 220 286 320 303 294 271 257 232 223 214 194 180 177 177 175 174 176 177 177 179 184 188 192 190 184 182 182 187 191 194 195 202 205 208 214 222 234 245 254 264
239 256 265 259 262 269 271 276 288 279 257 227 218 209 196 186 181 180 181 179 179 180 183 186 187 192 195 187 184 186 189 192 196 200 202 206 212 218 222 228 237 247 257 266
247 266 279 265 262 275 280 279 282 272 243 226 217 208 198 192 188 186 184 183 186 190 191 191 189 191 192 189 188 192 194 197 202 206 210 214 215 222 230 234 244 252 260 266
259 278 280 291 314 308 289 281 282 269 241 224 215 207 201 197 189 186 186 186 190 194 195 195 192 193 192 191 194 198 200 202 204 205 209 217 223 228 228 242 240 244 257 267
274 300 292 296 304 306 295 293 288 265 241 224 216 207 200 195 189 189 191 193 195 196 197 197 196 197 195 194 197 203 206 205 205 210 212 218 226 236 243 237 232 237 242 249
267 277 277 279 290 302 296 295 287 267 246 226 212 203 198 194 191 193 197 198 197 196 198 199 201 202 199 198 200 207 212 211 211 215 221 225 230 238 246 255 259 259 243 235
260 257 265 282 290 298 293 279 263 257 244 215 200 197 196 198 200 202 199 193 191 194 198 200 205 207 201 201 205 210 212 214 215 220 224 230 235 240 245 252 260 266 272 256
272 269 262 265 274 282 280 266 258 258 240 217 203 202 202 202 199 197 195 192 195 201 202 204 209 207 201 203 207 212 214 212 216 223 226 231 235 241 245 250 257 263 269 275
259 259 260 261 265 272 273 268 264 259 242 223 215 203 191 186 186 192 199 204 209 211 211 211 212 207 205 207 209 212 215 212 210 226 232 235 238 243 247 252 259 265 270 273
257 263 265 266 271 275 277 272 266 260 249 232 207 195 191 193 198 202 204 204 207 215 220 218 213 210 210 212 214 217 218 221 221 227 232 235 242 247 252 256 261 267 274 272
274 277 279 278 276 272 270 267 263 256 245 217 202 203 205 206 205 206 206 207 210 218 225 222 207 215 218 215 214 218 222 224 226 230 233 234 240 249 254 259 265 270 273 277
310 306 302 297 290 278 272 267 259 250 235 216 207 207 211 214 211 210 212 220 225 229 230 225 220 224 225 220 212 223 226 229 232 236 239 244 248 254 258 262 266 270 272 273
316 311 306 301 297 288 273 260 247 239 233 223 216 215 217 220 220 218 220 231 238 238 234 225 227 231 231 225 217 229 230 233 237 242 246 249 253 256 259 263 266 268 270 273
313 312 308 303 298 296 292 276 251 238 231 226 224 222 219 222 228 236 240 243 245 249 244 241 243 240 238 237 234 236 236 238 243 248 251 253 256 259 262 265 268 270 271 273
313 312 308 303 301 303 300 288 263 245 234 228 223 220 223 230 233 237 252 260 254 255 255 253 257 246 243 241 244 243 242 244 248 251 253 256 260 262 265 267 269 271 273 274
318 322 324 320 315 303 296 298 290 271 253 250 243 237 234 236 247 252 256 239 245 249 258 252 243 244 242 245 249 251 254 256 259 260 261 263 265 265 267 268 270 271 272 275
315 314 313 308 301 297 295 297 298 288 271 265 263 264 262 255 257 260 261 257 253 251 255 248 245 249 249 253 256 260 264 264 266 269 267 266 267 268 269 270 271 273 274 275
302 297 290 285 290 286 280 276 274 274 271 268 270 271 273 269 259 258 255 253 254 257 260 256 252 251 256 261 265 265 265 265 263 262 262 264 265 267 269 270 273 274 276 277
285 284 282 282 279 272 266 262 261 262 260 258 263 266 266 265 262 260 261 261 258 257 261 264 265 266 265 263 265 267 268 267 266 266 267 267 269 270 271 273 275 277 279 278
Height
1508 1509 1512 1513 1514 1517 1517 1513 1514 1509 1509 1505 1506 1510 1514 1517 1520 1523 1526 1529 1531 1534 1537 1539 1542 1544 1546 1548 1549 1550 1551 1552 1553 1554 1555 1555 1556 1557 1557 1558 1558 1558 1557 1557
1509 1509 1510 1512 1510 1511 1512 1510 1509 1508 1506 1501 1504 1508 1511 1514 1517 1519 1521 1524 1527 1531 1534 1536 1539 1541 1543 1545 1546 1548 1549 1550 1551 1552 1553 1554 1555 1555 1556 1556 1556 1556 1556 1555
1508 1507 1510 1510 1501 1503 1504 1503 1504 1504 1500 1500 1503 1505 1507 1510 1512 1514 1517 1520 1523 1526 1529 1532 1535 1538 1540 1542 1544 1545 1547 1548 1549 1550 1551 1552 1553 1553 1554 1554 1554 1554 1553 1553
1506 1509 1517 1498 1493 1495 1498 1497 1497 1496 1496 1499 1501 1503 1505 1507 1509 1511 1514 1517 1520 1523 1526 1529 1532 1535 1537 1539 1541 1543 1544 1545 1546 1547 1549 1550 1550 1551 1551 1552 1552 1551 1551 1550
1506 1509 1503 1495 1493 1495 1497 1495 1493 1494 1495 1498 1500 1502 1502 1504 1505 1507 1510 1513 1516 1519 1523 1526 1529 1532 1534 1536 1538 1540 1541 1542 1544 1545 1546 1547 1548 1548 1549 1549 1549 1549 1548 1547
1506 1510 1509 1495 1491 1494 1496 1495 1490 1492 1493 1496 1499 1498 1497 1500 1502 1505 1507 1510 1513 1516 1520 1523 1526 1528 1531 1533 1535 1536 1538 1539 1541 1542 1543 1544 1545 1545 1546 1546 1546 1545 1545 1544
1503 1503 1495 1488 1493 1495 1499 1493 1490 1491 1492 1494 1495 1494 1496 1498 1500 1502 1505 1508 1511 1514 1517 1520 1522 1525 1528 1530 1531 1533 1535 1536 1537 1539 1540 1541 1542 1542 1542 1542 1542 1542 1542 1541
1498 1502 1498 1491 1492 1492 1489 1489 1490 1490 1491 1492 1493 1494 1495 1496 1498 1500 1502 1505 1508 1511 1514 1517 1519 1522 1524 1526 1528 1530 1532 1533 1534 1535 1536 1537 1538 1539 1539 1539 1539 1539 1538 1537
1490 1491 1489 1491 1490 1490 1490 1490 1490 1490 1490 1491 1492 1493 1494 1495 1497 1498 1501 1503 1506 1509 1511 1514 1516 1519 1521 1523 1525 1526 1528 1529 1531 1532 1533 1534 1534 1535 1535 1535 1535 1535 1534 1533
1489 1486 1488 1489 1489 1489 1489 1489 1489 1489 1489 1489 1490 1491 1492 1493 1495 1497 1499 1501 1503 1506 1508 1511 1513 1515 1518 1520 1521 1523 1524 1526 1527 1528 1529 1530 1530 1531 1531 1531 1531 1531 1530 1529
1486 1485 1486 1486 1487 1487 1487 1486 1486 1486 1486 1487 1488 1488 1489 1491 1492 1494 1496 1498 1501 1503 1505 1507 1509 1512 1514 1516 1517 1519 1521 1522 1523 1524 1525 1525 1525 1526 1526 1526 1526 1526 1525 1524
1483 1483 1484 1484 1485 1484 1484 1484 1484 1483 1484 1484 1485 1486 1487 1488 1490 1491 1493 1495 1497 1499 1501 1504 1506 1508 1510 1512 1513 1515 1517 1518 1519 1519 1520 1520 1521 1521 1520 1521 1521 1520 1519 1519
1483 1483 1483 1483 1483 1482 1482 1482 1481 1481 1481 1481 1482 1483 1485 1486 1487 1489 1490 1492 1494 1496 1498 1500 1502 1503 1505 1507 1509 1511 1512 1513 1514 1515 1515 1515 1516 1516 1516 1515 1515 1514 1514 1513
1481 1481 1481 1481 1480 1480 1479 1479 1479 1478 1479 1479 1480 1481 1482 1483 1484 1486 1487 1489 1491 1493 1494 1496 1498 1499 1501 1503 1504 1506 1507 1508 1509 1509 1510 1510 1510 1510 1510 1510 1509 1508 1508 1506
1477 1478 1478 1478 1477 1477 1477 1476 1476 1476 1476 1476 1477 1478 1479 1480 1481 1483 1484 1486 1487 1489 1490 1492 1493 1495 1497 1498 1499 1501 1502 1503 1504 1504 1504 1505 1505 1504 1504 1504 1503 1502 1501 1500
1474 1474 1475 1475 1474 1474 1474 1474 1474 1474 1474 1474 1474 1475 1476 1477 1478 1480 1481 1482 1484 1485 1486 1488 1489 1490 1492 1493 1494 1495 1496 1497 1498 1499 1499 1499 1499 1499 1498 1498 1497 1496 1495 1493
1471 1471 1471 1471 1471 1471 1471 1471 1472 1471 1471 1471 1472 1472 1473 1474 1475 1476 1478 1479 1480 1481 1483 1484 1485 1486 1487 1488 1489 1490 1491 1491 1492 1493 1493 1493 1493 1493 1492 1491 1491 1489 1488 1487
1468 1468 1468 1469 1468 1468 1468 1468 1468 1469 1469 1469 1469 1470 1470 1471 1471 1472 1474 1475 1476 1477 1478 1479 1480 1481 1482 1482 1484 1484 1485 1486 1486 1487 1487 1487 1487 1487 1486 1485 1484 1483 1482 1480
1464 1464 1464 1465 1465 1465 1465 1465 1465 1465 1466 1466 1466 1467 1467 1468 1469 1469 1470 1471 1472 1472 1473 1474 1475 1476 1476 1477 1478 1478 1479 1480 1480 1480 1481 1481 1480 1480 1480 1479 1478 1476 1475 1473
1461 1461 1461 1461 1461 1461 1461 1461 1461 1462 1462 1463 1463 1463 1464 1465 1465 1466 1467 1467 1467 1468 1469 1470 1470 1471 1471 1472 1472 1473 1473 1474 1474 1475 1475 1474 1474 1474 1473 1472 1471 1470 1468 1467
1458 1458 1457 1457 1457 1458 1458 1458 1458 1458 1458 1459 1459 1460 1460 1461 1462 1463 1463 1463 1464 1464 1465 1465 1466 1466 1466 1466 1467 1467 1467 1468 1468 1468 1468 1468 1467 1467 1466 1465 1464 1463 1461 1460
1455 1455 1454 1454 1454 1454 1454 1455 1455 1455 1455 1455 1456 1456 1457 1457 1458 1459 1459 1460 1459 1460 1460 1460 1461 1461 1461 1461 1461 1461 1462 1462 1462 1462 1462 1461 1461 1460 1459 1458 1457 1455 1454 1452
1453 1453 1452 1452 1451 1451 1451 1451 1451 1451 1451 1452 1452 1453 1453 1453 1454 1454 1454 1455 1455 1455 1455 1455 1455 1455 1455 1456 1456 1456 1456 1456 1455 1455 1455 1455 1454 1454 1453 1451 1450 1448 1447 1445
1451 1450 1450 1449 1449 1448 1448 1448 1448 1448 1448 1448 1449 1449 1449 1449 1450 1450 1450 1450 1450 1450 1450 1450 1450 1449 1450 1450 1450 1450 1450 1449 1449 1449 1448 1448 1447 1447 1446 1444 1442 1441 1439 1437
1448 1448 1447 1447 1447 1446 1446 1445 1445 1445 1445 1445 1445 1445 1446 1445 1445 1445 1445 1445 1445 1445 1445 1445 1444 1444 1444 1444 1444 1444 1444 1443 1443 1442 1441 1441 1440 1439 1438 1437 1435 1433 1431 1429
1446 1445 1445 1444 1444 1443 1443 1443 1442 1442 1442 1441 1441 1441 1441 1441 1441 1440 1440 1440 1440 1440 1440 1439 1439 1439 1439 1439 1438 1437 1437 1437 1436 1435 1434 1433 1432 1431 1430 1429 1427 1425 1423 1421
1442 1442 1442 1441 1440 1440 1440 1439 1439 1438 1438 1438 1437 1437 1436 1436 1436 1436 1436 1436 1435 1435 1435 1434 1434 1434 1433 1433 1432 1432 1431 1430 1429 1428 1427 1426 1425 1424 1423 1421 1419 1417 1415 1412